Other Public Products
Issued by NWS Grand Forks, ND

Home | Current Version | Previous Version | Text Only | Print | Product List | Glossary Off
Versions: 1 2 3 4 5 6 7 8 9 10 11 12 13 14 15 16 17 18 19 20 21 22 23 24 25 26 27 28 29 30 31 32 33 34 35 36 37 38 39 40 41 42 43 44 45 46 47 48 49 50

000
FPUS83 KFGF 221910
OPUFGF
PRAIRIE TO PINES WEATHER ROUNDUP
NATIONAL WEATHER SERVICE EASTERN NORTH DAKOTA/GRAND FORKS ND
200 PM CDT SAT APR 22 2017

 **SATELLITE DATA USED TO AUGMENT SKY COVER AT AUTOMATED STATIONS**
 *****  WEATHER ACROSS EASTERN NORTH DAKOTA  *****

CITY           SKY/WX    TMP DP  RH WIND       PRES   REMARKS
GRAND FORKS    PTSUNNY   54  43  66 N15G23    30.18F
GRAND FORKS AF CLOUDY    50  40  69 N13G24    30.19F
GRAND CITY NWS NOT AVBL
BUXTON         NOT AVBL
DEVILS LAKE    PTSUNNY   48  38  68 NE16G22   30.19F
FARGO          PTSUNNY   67  37  33 W17       30.14F
WAHPETON ARPT  FAIR      64  36  34 W10G18    30.18F
$$

 *****  WEATHER ACROSS CENTRAL AND WESTERN NORTH DAKOTA  *****

CITY           SKY/WX    TMP DP  RH WIND       PRES   REMARKS
JAMESTOWN      FAIR      64  35  34 W14G25    30.14F
BISMARCK       PTSUNNY   68  37  32 W13G28    30.14F
MINOT          CLOUDY    53  39  59 N15       30.19F
MINOT AFB      FAIR      48  37  66 N16G22    30.19F
GARRISON         N/A     57  42  57 VRB6      30.16F
WILLISTON      CLOUDY    50  41  71 SE8       30.19F
DICKINSON      CLOUDY    59  40  49 W17G24    30.14F
HETTINGER      FAIR      63  42  46 W13       30.18F
$$

 *****  OTHER OBSERVATIONS NORTHEAST NORTH DAKOTA  *****

CITY           SKY/WX    TMP DP  RH WIND       PRES   REMARKS
WALHALLA       NOT AVBL
LANGDON        MIX PCPN  36  34  93 NE14      30.24R
CAVALIER       CLOUDY    36  32  87 N13G18    30.25R
GRAFTON        CLOUDY    41  36  81 N17       30.24F
CANDO          NOT AVBL
FORT TOTTEN      N/A     51  41  68 N8        29.95S
ROLLA          CLOUDY    34  34 100 NE15      30.24S WCI  24
RUGBY          NOT AVBL
 ***** THE ABOVE OBSERVATIONS ARE NON NWS ARE NOT QUALITY
        CONTROLLED AND MAY MIS-REPORT RAIN FOR SNOW...
$$

 *****  OTHER OBSERVATIONS SOUTHEAST NORTH DAKOTA *****

CITY           SKY/WX    TMP DP  RH WIND       PRES   REMARKS
COOPERSTOWN    MOCLDY    52  46  82 NE20G26   30.16R
VALLEY CITY    FAIR      64  37  36 W15G23    30.16F
OAKES          NOT AVBL
GWINNER        CLEAR     66  41  39 MISG      30.17F
SHEYENNE NWR     N/A     67  36  31 W12       29.95S
BUFFALO        NOT AVBL
WYNDMERE         N/A     68  39  34 MISG        N/A
 ***** THE ABOVE OBSERVATIONS ARE NON NWS ARE NOT QUALITY
       CONTROLLED AND MAY MIS-REPORT RAIN FOR SNOW...
$$

  *****  WEATHER ACROSS NORTHERN MINNESOTA  *****

CITY           SKY/WX    TMP DP  RH WIND       PRES   REMARKS
FLAG ISLAND    LGT RAIN  37  36  93 NW13      30.17R
WARROAD        DRIZZLE   39  36  87 NW10      30.19R
ROSEAU         CLOUDY    43  37  81 NW14      30.19S
HALLOCK        CLOUDY    37  34  87 N16       30.23F
THF RVR FALLS  FAIR      53  40  61 N13       30.17F
HALSTAD          N/A     63  45  50 N20         N/A
FOSSTON        FAIR      59  43  55 NW17      30.15R
BAUDETTE       CLOUDY    45  37  73 N10       30.16R
WASKISH        PTSUNNY   55  45  67 N9G16     30.13R
CROOKSTON      FAIR      54  45  71 N16G23    30.18F
$$
  *****  WEATHER ACROSS CENTRAL AND WEST MINNESOTA  *****

CITY           SKY/WX    TMP DP  RH WIND       PRES   REMARKS
BEMIDJI        CLOUDY    64  37  35 W17G23    30.12F
PARK RAPIDS    PTSUNNY   67  36  31 W21G30    30.14F
WADENA         PTSUNNY   61  39  44 NW12G17   30.17F
DETROIT LAKES  FAIR      63  36  36 W12G22    30.17F
MOORHEAD       FAIR      66  37  34 SW15G25   30.15F
FERGUS FALLS   FAIR      63  39  42 NW9G18    30.17F
ELBOW LAKE     FAIR      64  40  41 NW10G18   30.20F
MORRIS MN      FAIR      66  41  39 NW6       30.19F
STAPLES        PTSUNNY   64  34  32 W14G22    30.18S
WHEATON        FAIR      66  34  30 W13       30.21F
$$
  *****  WEATHER ELSEWHERE ACROSS MINNESOTA  *****

CITY           SKY/WX    TMP DP  RH WIND       PRES   REMARKS
DULUTH         FAIR      65  38  36 W16G25    30.10F
INTRNTL FALLS  PTSUNNY   53  37  54 NW16G30   30.10R
ELY            FAIR      63  32  31 W20G25    30.05F
CLOQUET        FAIR      64  28  25 W16G25    30.12F
BRAINERD       FAIR      65  34  31 W14G24    30.16F
HIBBING        FAIR      63  37  38 W14G22    30.09F
ALEXANDRIA     FAIR      64  37  36 W10G20    30.20F
SAINT CLOUD    FAIR      65  38  36 W16       30.19F
MINNEAPOLIS    FAIR      68  34  28 NW10G18   30.20F
$$

  *****  WEATHER ACROSS SOUTH DAKOTA  *****

CITY           SKY/WX    TMP DP  RH WIND       PRES   REMARKS
SIOUX FALLS    FAIR      64  36  35 CALM      30.23F
BROOKINGS      FAIR      61  36  39 W14       30.23F
WATERTOWN      FAIR      63  36  36 W12       30.22F
HURON          FAIR      65  36  34 VRB3G18   30.22F
SISSETON         N/A     66  40  38 W14       30.19F
ABERDEEN       FAIR      66  34  30 W14       30.19F
MITCHELL       FAIR      65  37  35 VRB7      30.24F
PIERRE         FAIR      63  31  30 SW8       30.21F
MOBRIDGE       FAIR      67  34  29 SW13      30.16F
RAPID CITY     FAIR      60  38  43 SE9       30.21F
$$

  *****  SOME WEATHER IN NEARBY STATES *****

CITY           SKY/WX    TMP DP  RH WIND       PRES   REMARKS
GLASGOW MT     CLOUDY    46  40  79 E5        30.19F
GREAT FALLS MT FAIR      54  35  48 S14       30.08F
CHEYENNE WY    FAIR      47  35  63 VRB3      30.28F
SCOTTSBLUFF NE CLOUDY    57  34  41 SW6       30.25F
OMAHA NE       PTSUNNY   65  30  27 NE10      30.23F
DES MOINES IA  PTSUNNY   65  28  24 NE10G17   30.21F
DAVENPORT IA   FAIR      61  34  36 NE9       30.20F
CHICAGO IL     PTSUNNY   57  26  30 NE13      30.19F
EAU CLAIRE WI  FAIR      64  26  23 W10       30.19F
LA CROSSE WI   FAIR      65  23  20 VRB5      30.20F
$$

  *****  SOME NATIONAL WEATHER *****

CITY           SKY/WX    TMP DP  RH WIND       PRES   REMARKS
LA GUARDIA NY  LGT RAIN  54  50  86 CALM      29.92S
RALEIGH NC     PTSUNNY   86  59  39 SW18G26   29.81F
ATLANTA GA     PTSUNNY   80  51  36 SW13      29.90F
NEW ORLEANS LA PTSUNNY   82  64  54 CALM      29.91F
OKLAHOMA CITY  PTSUNNY   56  42  59 N20G29    30.13S
ALBUQUERQUE NM FAIR      62  27  26 NE8       30.17F
SALT LAKE CITY PTSUNNY   59  25  27 S8        30.19F
LOS ANGELES CA FAIR      76  57  51 W12       29.88F
BOISE ID       FAIR      64  24  21 SE31G45   30.00F
SEATTLE WA     LGT RAIN  51  45  79 SW9       29.88R
$$

*** WEATHER ACROSS MANITOBA...SASKATCHEWAN AND ONTARIO ***
                ***ONTARIO***

CITY           SKY/WX    TMP DP  RH WIND       PRES   REMARKS
GERALDTON      CLOUDY    55  30  38 W9        29.95F
THUNDER BAY    PTSUNNY   66  32  28 W17       29.98F
SIOUX LOOKOUT  LGT RAIN  36  34  93 N9G17     30.08R
TORONTO        PTSUNNY   54  30  40 N16G25    30.07S
BIG TROUT LK   PTSUNNY   21   9  58 N10       30.21F WCI  10
PICKLE LAKE    LGT SNOW  25  21  86 N7G17     30.10R WCI  17
DRYDEN         CLOUDY    37  36  93 N9        30.10R
KENORA         CLOUDY    37  36  93 NW9       30.15S FOG
$$
                *** MANITOBA***

CITY           SKY/WX    TMP DP  RH WIND       PRES   REMARKS
BRANDON        PTSUNNY   37  25  60 E15G21    30.28F
DAUPHIN        CLOUDY    34  25  69 N12       30.34F
ISLAND LAKE    MOSUNNY   21   3  45 N6G21     30.33S WCI  14
PILOT MOUND      N/A     34  28  80 N14G21      N/A  WCI  24
THE PAS        PTSUNNY   32  12  43 NW5       30.36F
THOMPSON       PTSUNNY   18  -2  41 NW12G21   30.39F WCI   5
WINNIPEG       CLOUDY    34  28  80 N16G23    30.28R WCI  23
LYNN LAKE      MOSUNNY   16   1  53 N9        30.40S WCI   4
CHURCHILL      FLURRIES   1  -4  78 NW21G28   30.42S WCI -20
GILLAM         MOSUNNY   12  -6  44 NW9       30.39S WCI   0
$$
                ***SASKATCHEWAN***

CITY           SKY/WX    TMP DP  RH WIND       PRES   REMARKS
ESTEVAN        CLOUDY    41  34  75 E16       30.24F
KINDERSLEY     CLOUDY    45  34  65 E8        30.20F
LLOYDMINSTER   PTSUNNY   37  25  60 E7        30.29S
PRINCE ALBERT  PTSUNNY   36  19  51 NE7       30.34F
REGINA         CLOUDY    43  32  65 E5        30.25F
YORKTON        CLOUDY    37  25  60 N7        30.28F



USA.gov is the U.S. government's official web portal to all federal, state and local government web resources and services.